Location: Albuquerque Trailhead
(34.7934°N, 106.3736°W)
Time: 14:10:33
(UTC+00:00)

POLYITAN 1 - Visible Passes

Search period start: 18 April 2024 00:00
Search period end: 28 April 2024 00:00
Orbit: 555 x 574 km, 98.1° (Epoch: 17 April)

Date Brightness Start Highest point End Pass type
(mag) Time Alt. Az. Time Alt. Az. Time Alt. Az.
18 Apr ? 09:51:31 10° NNE 09:54:43 34° E 09:54:43 34° E visible
18 Apr ? 11:27:39 10° NNW 11:29:55 15° WNW 11:30:44 14° W visible
19 Apr ? 09:51:39 10° NNE 09:54:58 35° E 09:54:58 35° E visible
19 Apr ? 11:27:46 10° NNW 11:30:03 15° WNW 11:30:59 14° W visible
20 Apr ? 09:51:45 10° NNE 09:55:11 35° E 09:55:11 35° E visible
20 Apr ? 11:27:51 10° NNW 11:30:08 15° WNW 11:31:12 14° W visible
21 Apr ? 09:51:48 10° NNE 09:55:22 35° E 09:55:22 35° E visible
21 Apr ? 11:27:55 10° NNW 11:30:12 15° WNW 11:31:22 13° W visible
22 Apr ? 09:51:50 10° NNE 09:55:30 35° E 09:55:30 35° E visible
22 Apr ? 11:27:55 10° NNW 11:30:13 15° WNW 11:31:30 13° W visible
23 Apr ? 09:51:48 10° NNE 09:55:35 35° E 09:55:35 35° E visible
23 Apr ? 11:27:53 10° NNW 11:30:11 15° WNW 11:31:35 13° W visible
24 Apr ? 09:51:45 10° NNE 09:55:30 35° E 09:55:38 35° ESE visible
24 Apr ? 11:27:47 10° NNW 11:30:08 15° WNW 11:31:38 13° W visible
25 Apr ? 09:51:39 10° NNE 09:55:25 35° E 09:55:38 34° ESE visible
25 Apr ? 11:27:40 10° NNW 11:30:02 15° WNW 11:31:38 12° W visible
26 Apr ? 09:51:32 10° NNE 09:55:16 34° E 09:55:36 34° ESE visible
26 Apr ? 11:27:30 10° NNW 11:29:53 15° WNW 11:31:36 12° W visible
27 Apr ? 09:51:22 10° NNE 09:55:05 34° E 09:55:31 33° ESE visible
27 Apr ? 11:27:18 10° NNW 11:29:43 15° WNW 11:31:31 12° W visible
